Location: Pittsburgh
(40.4410°N, 79.9960°W)
Time: 08:44:40
(UTC-04:00)

BlueWalker 3 - Pass Details

Date: 21 March 2026
Orbit: 449 x 457 km, 53.2° (Epoch: 13 April)

Event Time Altitude Azimuth Distance (km) Brightness Sun altitude
Rises 20:43:03 0° 208° (SSW) 2,448 5.6 -14.0°
Reaches altitude 10° 20:45:17 10° 199° (SSW) 1,581 4.5 -14.4°
Maximum altitude 20:48:32 34° 133° (SE) 763 2.4 -15.0°
Enters shadow 20:49:11 32° 109° (ESE) 811 2.4 -15.1°
